This is the latest recevied weather packets stored in our database for station/object KC5TIL. If no packets are shown the sender has not sent any weather packets the latest 10 day(s).
| Time | Temp. | Humidity | Pressure | Rain* | Wind** | Luminosity | Snow |
|---|---|---|---|---|---|---|---|
| 1788622566 | 33.89° C | 55% | 1015.6 hPa | 0 mm | - | 593 W/m² | - |
| 1788622261 | 33.33° C | 56% | 1015.5 hPa | 0 mm | - | 570 W/m² | - |
| 1788621956 | 33.33° C | 56% | 1015.4 hPa | 0 mm | - | 551 W/m² | - |
| 1788621650 | 32.78° C | 58% | 1015.4 hPa | 0 mm | - | 527 W/m² | - |
| 1788621346 | 33.33° C | 57% | 1015.2 hPa | 0 mm | - | 551 W/m² | - |
| 1788621041 | 33.33° C | 57% | 1015.4 hPa | 0 mm | - | 507 W/m² | - |
| 1788620736 | 32.22° C | 58% | 1015.4 hPa | 0 mm | - | 471 W/m² | - |
| 1788620434 | 31.11° C | 62% | 1015.1 hPa | 0 mm | - | 448 W/m² | - |
| 1788620127 | 32.22° C | 62% | 1015.3 hPa | 0 mm | - | 408 W/m² | - |
| 1788619827 | 31.67° C | 61% | 1015.2 hPa | 0 mm | - | 380 W/m² | - |
| 1788619522 | 31.67° C | 61% | 1015.4 hPa | 0 mm | - | 336 W/m² | - |
| 1788619221 | 31.67° C | 62% | 1015.3 hPa | 0 mm | - | 66 W/m² | - |
| 1788618920 | 32.22° C | 62% | 1015.5 hPa | 0 mm | - | 59 W/m² | - |
| 1788618615 | 31.67° C | 63% | 1015.4 hPa | 0 mm | - | 258 W/m² | - |
| 1788618314 | 30.56° C | 65% | 1015.6 hPa | 0 mm | - | 56 W/m² | - |
| 1788618009 | 31.11° C | 66% | 1015.4 hPa | 0 mm | - | 259 W/m² | - |
| 1788617703 | 30.56° C | 66% | 1015.5 hPa | 0 mm | - | 224 W/m² | - |
| 1788617400 | 30.56° C | 69% | 1015.4 hPa | 0 mm | - | 186 W/m² | - |
| 1788617095 | 30° C | 69% | 1015.4 hPa | 0 mm | - | 193 W/m² | - |
| 1788616793 | 30.56° C | 68% | 1015.3 hPa | 0 mm | - | 195 W/m² | - |
| 1788616489 | 30° C | 68% | 1015.4 hPa | 0 mm | - | 196 W/m² | - |
| 1788616185 | 29.44° C | 70% | 1015.5 hPa | 0 mm | - | 169 W/m² | - |
| 1788615884 | 29.44° C | 71% | 1015.4 hPa | 0 mm | - | 153 W/m² | - |
| 1788615583 | 29.44° C | 71% | 1015.2 hPa | 0 mm | - | 128 W/m² | - |
| 1788615278 | 28.89° C | 72% | 1015.4 hPa | 0 mm | - | 120 W/m² | - |
* Rain latest hour (hover to see other rain measurements)
** Current wind speed in m/s (hover to see current wind gust speed)